CZ-6A DEB, 54516

Orbit data source: Space-Track

CZ-6A DEB, 54516 is space debris in SSO originally from a launch on Fri, 11 Nov 2022 UTC launched from the Taiyaun Space Center, China (TSC). Debris objects in space refer to the collection of defunct objects orbiting the Earth. Examples of debris include non-operational satellites, rocket bodies, and fragments generated from explosions, collisions, or faulty payload assembly.

Loading next visibility...
Identifier
54516, 2022-151JU
Orbit
SSO
Country
Flag of CNCN / PRC
Related business
Manufacturer
SAST
Mission
Spacecraft
Bus & Motor
Unknown
Mass
Unknown
Launch date (UTC)
2022-11-11 (4 years ago)
Launch vehicle
Unknown
Launch site
Taiyaun Space Center, China (TSC)
Object type
Payload
Rocket body
Debris
Shape & HBR
Unknown shape, 0.1 m
Radar Cross Section
Medium (>0.1 m² and <1 m²)

Expand to show TLE details & history
Last TLE update: 2 days ago

TLE from 2 days ago
0 CZ-6A DEB
1 54516U 22151JU  26237.06627847  .00000764  00000-0  21675-3 0  9993
2 54516  98.5409 268.2887 0136091 134.3003 226.9444 14.43064896198704
Epoch: 2026-08-25T01:35Z
TLE epoch observation values (Epoch: 2026-08-25T01:35:26.459Z)
Latitude
-0.00003°
Longitude
-88.91051°
Altitude
818.264 km
Speed
7.409 km/s
True Right ascension
17h 53m 09s
True Declination
0° 00' 00"
Sunlit
Object was in daylight at epoch
Visualization orbit readout
Latitude
Unknown
Longitude
Unknown
Altitude
Unknown
Speed
Unknown
Apparent Right ascension
Unknown
Apparent Declination
Unknown
Sunlit
N/A
Visualization observer readout
Local Sidereal Time
06:20:16
Azimuth
Unknown
Elevation
Unknown
Doppler factor
Unknown
Orbital elements
Apogee altitude
842.455 km
Perigee altitude
648.563 km
Semi-major axis
7,123.646 km
Eccentricity
0.01361
Inclination
98.5409°
RAAN
268.2887°
Arg. of periapsis
134.3003°
True anomaly
225.81806°
Mean anomaly
226.9444°
Eccentric anomaly
226.37992°
Mean motion
3.60985 °/min
Orbital period
99.73 mins
BSTAR
0.00021675
Loading maneuver chart data...
Computing Atmospheric mass density...
Loading historical data...
Loading historical data...
Loading historical data...
Loading historical data...
Loading historical data...
Loading historical data...
Loading historical data...

Documentation

Showing up to 5 results
|